CMP127 MPTO-SLVR

Flight info

Callsign CMP127
Flight time 4h 23m
Altitude 35000
Route TIRLA DCT IRATA UN420 VUMPU/N0460F370 UM784 LOKOX UM415 VIR
Aircraft B38M/M-SDE1FGHILORVWXY/HB1

Departure

Time 2026-04-22 01:28
Airport Tocumen International Airport (MPTO)

Arrival

Time 2026-04-22 05:52
Airport Viru Viru International Airport (SLVR)
Time Latitude Longitude Altitude Speed Heading
2026-04-22 01:06 9.06472 -79.38641 32 ft 0 kts 304°
2026-04-22 01:17 9.06469 -79.38637 32 ft 2 kts 303°
2026-04-22 01:17 9.06460 -79.38623 32 ft 2 kts 305°
2026-04-22 01:17 9.06450 -79.38609 32 ft 2 kts 307°
2026-04-22 01:18 9.06440 -79.38596 32 ft 2 kts 313°
2026-04-22 01:18 9.06426 -79.38586 32 ft 2 kts 356°
2026-04-22 01:18 9.06416 -79.38588 32 ft 1 kts 26°
2026-04-22 01:18 9.06415 -79.38588 32 ft 0 kts 26°
2026-04-22 01:22 9.06420 -79.38586 32 ft 3 kts 26°
2026-04-22 01:23 9.06468 -79.38561 32 ft 13 kts 31°
2026-04-22 01:23 9.06572 -79.38506 32 ft 20 kts 28°
2026-04-22 01:23 9.06698 -79.38438 32 ft 21 kts 27°
2026-04-22 01:23 9.06830 -79.38376 32 ft 20 kts
2026-04-22 01:24 9.06929 -79.38457 33 ft 17 kts 324°
2026-04-22 01:24 9.07011 -79.38435 33 ft 13 kts 28°
2026-04-22 01:24 9.07093 -79.38391 33 ft 14 kts 24°
2026-04-22 01:24 9.07163 -79.38390 33 ft 6 kts 298°
2026-04-22 01:25 9.07172 -79.38431 33 ft 7 kts 283°
2026-04-22 01:25 9.07191 -79.38475 33 ft 7 kts 300°
2026-04-22 01:25 9.07218 -79.38521 34 ft 9 kts 302°
2026-04-22 01:25 9.07250 -79.38580 37 ft 9 kts 289°
2026-04-22 01:26 9.07262 -79.38629 41 ft 4 kts 283°
2026-04-22 01:26 9.07268 -79.38650 43 ft 4 kts 288°
2026-04-22 01:26 9.07288 -79.38691 47 ft 9 kts 303°
2026-04-22 01:26 9.07343 -79.38701 47 ft 9 kts 31°
2026-04-22 01:27 9.07392 -79.38665 50 ft 9 kts 32°
2026-04-22 01:27 9.07456 -79.38625 51 ft 16 kts 31°
2026-04-22 01:27 9.07721 -79.38465 49 ft 79 kts 31°
2026-04-22 01:27 9.08383 -79.38068 48 ft 143 kts 31°
2026-04-22 01:28 9.09387 -79.37473 169 ft 186 kts 31°
2026-04-22 01:28 9.10538 -79.36774 898 ft 194 kts 32°
2026-04-22 01:28 9.11519 -79.35865 1801 ft 194 kts 57°
2026-04-22 01:28 9.11853 -79.34519 2529 ft 208 kts 91°
2026-04-22 01:29 9.11316 -79.33071 3010 ft 236 kts 118°
2026-04-22 01:29 9.10633 -79.31500 3459 ft 254 kts 95°
2026-04-22 01:29 9.10830 -79.29695 4020 ft 266 kts 67°
2026-04-22 01:29 9.11493 -79.27962 5070 ft 263 kts 71°
2026-04-22 01:30 9.12007 -79.26165 5957 ft 270 kts 76°
2026-04-22 01:30 9.12119 -79.24907 6506 ft 274 kts 94°
2026-04-22 01:30 9.11544 -79.23071 7357 ft 281 kts 120°
2026-04-22 01:30 9.10174 -79.21630 8072 ft 290 kts 147°
2026-04-22 01:31 9.07613 -79.20775 9164 ft 298 kts 165°
2026-04-22 01:31 9.05579 -79.20244 9911 ft 303 kts 164°
2026-04-22 01:31 9.04196 -79.19878 10423 ft 306 kts 164°
2026-04-22 01:31 9.01378 -79.19142 11033 ft 327 kts 164°
2026-04-22 01:32 8.99122 -79.18559 11420 ft 342 kts 164°
2026-04-22 01:32 8.96775 -79.17954 11929 ft 351 kts 164°
2026-04-22 01:32 8.95177 -79.17543 12491 ft 350 kts 164°
2026-04-22 01:32 8.92841 -79.16943 13215 ft 352 kts 164°
2026-04-22 01:33 8.90450 -79.16328 13858 ft 356 kts 165°
2026-04-22 01:33 8.88042 -79.15709 14455 ft 358 kts 165°
2026-04-22 01:33 8.85621 -79.15087 15041 ft 361 kts 165°
2026-04-22 01:33 8.83176 -79.14458 15606 ft 364 kts 165°
2026-04-22 01:34 8.80708 -79.13824 16163 ft 367 kts 165°
2026-04-22 01:34 8.78224 -79.13186 16719 ft 369 kts 165°
2026-04-22 01:34 8.75727 -79.12544 17253 ft 372 kts 165°
2026-04-22 01:34 8.73203 -79.11896 17778 ft 375 kts 165°
2026-04-22 01:35 8.70670 -79.11246 18274 ft 378 kts 165°
2026-04-22 01:35 8.68143 -79.10597 18699 ft 380 kts 165°
2026-04-22 01:35 8.65573 -79.09937 19144 ft 382 kts 165°
2026-04-22 01:35 8.62989 -79.09274 19564 ft 385 kts 165°
2026-04-22 01:36 8.60388 -79.08606 19975 ft 387 kts 165°
2026-04-22 01:36 8.57758 -79.07931 20394 ft 389 kts 165°
2026-04-22 01:36 8.55124 -79.07256 20802 ft 392 kts 165°
2026-04-22 01:36 8.52467 -79.06574 21204 ft 394 kts 165°
2026-04-22 01:37 8.49800 -79.05890 21609 ft 397 kts 164°
2026-04-22 01:37 8.47145 -79.05209 21998 ft 399 kts 165°
2026-04-22 01:37 8.44447 -79.04517 22383 ft 401 kts 165°
2026-04-22 01:37 8.41732 -79.03821 22773 ft 404 kts 164°
2026-04-22 01:38 8.38998 -79.03120 23155 ft 406 kts 165°
2026-04-22 01:38 8.36252 -79.02416 23520 ft 408 kts 165°
2026-04-22 01:38 8.33488 -79.01708 23834 ft 410 kts 165°
2026-04-22 01:38 8.30720 -79.00999 24181 ft 411 kts 165°
2026-04-22 01:39 8.27938 -79.00286 24518 ft 412 kts 165°
2026-04-22 01:39 8.25152 -78.99572 24852 ft 413 kts 165°
2026-04-22 01:39 8.22362 -78.98858 25200 ft 414 kts 165°
2026-04-22 01:39 8.19570 -78.98143 25523 ft 415 kts 165°
2026-04-22 01:40 8.16763 -78.97424 25831 ft 417 kts 165°
2026-04-22 01:40 8.13945 -78.96703 26136 ft 418 kts 165°
2026-04-22 01:40 8.11117 -78.95979 26456 ft 420 kts 165°
2026-04-22 01:40 8.08279 -78.95252 26756 ft 421 kts 166°
2026-04-22 01:41 8.05426 -78.94522 27046 ft 423 kts 166°
2026-04-22 01:41 8.02566 -78.93790 27346 ft 425 kts 166°
2026-04-22 01:41 7.99698 -78.93057 27637 ft 426 kts 166°
2026-04-22 01:41 7.96820 -78.92321 27914 ft 428 kts 166°
2026-04-22 01:42 7.93927 -78.91580 28203 ft 429 kts 166°
2026-04-22 01:42 7.91026 -78.90838 28483 ft 431 kts 166°
2026-04-22 01:42 7.88111 -78.90093 28746 ft 433 kts 166°
2026-04-22 01:42 7.85223 -78.89355 29011 ft 434 kts 166°
2026-04-22 01:43 7.82290 -78.88605 29280 ft 435 kts 166°
2026-04-22 01:43 7.79338 -78.87851 29537 ft 437 kts 166°
2026-04-22 01:43 7.76385 -78.87096 29790 ft 439 kts 166°
2026-04-22 01:43 7.73425 -78.86340 30032 ft 440 kts 166°
2026-04-22 01:44 7.70449 -78.85580 30242 ft 441 kts 166°
2026-04-22 01:44 7.67469 -78.84819 30440 ft 443 kts 166°
2026-04-22 01:44 7.64469 -78.84052 30629 ft 445 kts 166°
2026-04-22 01:44 7.61462 -78.83284 30828 ft 446 kts 166°
2026-04-22 01:45 7.58444 -78.82514 31021 ft 448 kts 166°
2026-04-22 01:45 7.55418 -78.81741 31207 ft 449 kts 166°
2026-04-22 01:45 7.52416 -78.80975 31395 ft 451 kts 166°
2026-04-22 01:45 7.49399 -78.80105 31566 ft 453 kts 158°
2026-04-22 01:46 7.46649 -78.78561 31813 ft 453 kts 147°
2026-04-22 01:46 7.43950 -78.76914 31918 ft 456 kts 150°
2026-04-22 01:46 7.41206 -78.75295 32082 ft 457 kts 150°
2026-04-22 01:46 7.38462 -78.73652 32292 ft 458 kts 150°
2026-04-22 01:47 7.35725 -78.71999 32494 ft 459 kts 149°
2026-04-22 01:47 7.32990 -78.70343 32758 ft 459 kts 149°
2026-04-22 01:47 7.30249 -78.68681 33023 ft 458 kts 149°
2026-04-22 01:47 7.27522 -78.67029 33292 ft 457 kts 149°
2026-04-22 01:48 7.24799 -78.65379 33544 ft 457 kts 149°
2026-04-22 01:48 7.22073 -78.63726 33795 ft 456 kts 149°
2026-04-22 01:48 7.19351 -78.62077 34036 ft 456 kts 149°
2026-04-22 01:48 7.16629 -78.60428 34253 ft 455 kts 149°
2026-04-22 01:49 7.13942 -78.58801 34472 ft 455 kts 149°
2026-04-22 01:49 7.11231 -78.57158 34680 ft 454 kts 149°
2026-04-22 01:49 7.08522 -78.55518 34877 ft 455 kts 149°
2026-04-22 01:49 7.05810 -78.53876 34948 ft 454 kts 149°
2026-04-22 01:50 7.00403 -78.50603 34959 ft 453 kts 149°
2026-04-22 01:50 6.95002 -78.47334 34956 ft 453 kts 149°
2026-04-22 01:51 6.89625 -78.44080 34956 ft 453 kts 149°
2026-04-22 01:51 6.84227 -78.40816 34954 ft 453 kts 149°
2026-04-22 01:52 6.78828 -78.37551 34954 ft 453 kts 149°
2026-04-22 01:52 6.73427 -78.34286 34957 ft 453 kts 149°
2026-04-22 01:53 6.68033 -78.31014 34960 ft 453 kts 149°
2026-04-22 01:53 6.62637 -78.27742 34960 ft 452 kts 149°
2026-04-22 01:54 6.57244 -78.24473 34959 ft 452 kts 149°
2026-04-22 01:54 6.51856 -78.21206 34957 ft 452 kts 149°
2026-04-22 01:55 6.46470 -78.17943 34957 ft 452 kts 149°
2026-04-22 01:55 6.41081 -78.14678 34957 ft 452 kts 149°
2026-04-22 01:56 6.35687 -78.11412 34956 ft 452 kts 148°
2026-04-22 01:56 6.30297 -78.08148 34957 ft 452 kts 148°
2026-04-22 01:57 6.24906 -78.04885 34954 ft 452 kts 148°
2026-04-22 01:57 6.19552 -78.01644 34961 ft 452 kts 148°
2026-04-22 01:58 6.14159 -77.98382 34959 ft 452 kts 148°
2026-04-22 01:58 6.08769 -77.95121 34959 ft 452 kts 148°
2026-04-22 01:59 6.03360 -77.91850 34960 ft 453 kts 148°
2026-04-22 01:59 5.97960 -77.88585 34959 ft 453 kts 148°
2026-04-22 02:00 5.92555 -77.85318 34962 ft 453 kts 148°
2026-04-22 02:00 5.87151 -77.82052 34962 ft 453 kts 148°
2026-04-22 02:01 5.81770 -77.78801 34961 ft 454 kts 148°
2026-04-22 02:01 5.76351 -77.75528 34959 ft 454 kts 148°
2026-04-22 02:02 5.70933 -77.72255 34964 ft 454 kts 148°
2026-04-22 02:02 5.65520 -77.68987 34965 ft 454 kts 148°
2026-04-22 02:03 5.60136 -77.65737 34962 ft 454 kts 148°
2026-04-22 02:03 5.54721 -77.62469 34968 ft 454 kts 148°
2026-04-22 02:04 5.46600 -77.57569 34966 ft 454 kts 148°
2026-04-22 02:05 5.41185 -77.54303 34972 ft 454 kts 148°
2026-04-22 02:05 5.35768 -77.51036 34974 ft 454 kts 148°
2026-04-22 02:06 5.30388 -77.47792 34975 ft 453 kts 148°
2026-04-22 02:06 5.24983 -77.44534 34975 ft 453 kts 148°
2026-04-22 02:07 5.19584 -77.41280 34974 ft 453 kts 148°
2026-04-22 02:07 5.14183 -77.38025 34976 ft 452 kts 148°
2026-04-22 02:08 5.08784 -77.34773 34970 ft 452 kts 148°
2026-04-22 02:08 5.03379 -77.31517 34974 ft 452 kts 148°
2026-04-22 02:09 4.98022 -77.28291 34974 ft 452 kts 148°
2026-04-22 02:09 4.92629 -77.25043 34973 ft 452 kts 148°
2026-04-22 02:10 4.87235 -77.21797 34977 ft 452 kts 148°
2026-04-22 02:10 4.81830 -77.18543 34976 ft 453 kts 148°
2026-04-22 02:11 4.76425 -77.15291 34977 ft 453 kts 148°
2026-04-22 02:11 4.71010 -77.12033 34975 ft 453 kts 148°
2026-04-22 02:12 4.65608 -77.08783 34977 ft 453 kts 148°
2026-04-22 02:12 4.60235 -77.05552 34979 ft 453 kts 148°
2026-04-22 02:13 4.54835 -77.02305 34975 ft 452 kts 148°
2026-04-22 02:13 4.49441 -76.99062 34984 ft 452 kts 148°
2026-04-22 02:14 4.44032 -76.95810 34980 ft 452 kts 148°
2026-04-22 02:14 4.38640 -76.92570 34985 ft 451 kts 148°
2026-04-22 02:15 4.33289 -76.89354 34993 ft 451 kts 148°
2026-04-22 02:15 4.27906 -76.86120 34999 ft 450 kts 148°
2026-04-22 02:16 4.22533 -76.82893 35008 ft 450 kts 148°
2026-04-22 02:16 4.17153 -76.79661 35014 ft 450 kts 148°
2026-04-22 02:17 4.11780 -76.76435 35026 ft 449 kts 148°
2026-04-22 02:17 4.07320 -76.73757 35036 ft 450 kts 148°
2026-04-22 02:18 4.01952 -76.70534 35037 ft 450 kts 148°
2026-04-22 02:18 3.96575 -76.67306 35051 ft 450 kts 148°
2026-04-22 02:19 3.91198 -76.64079 35057 ft 451 kts 148°
2026-04-22 02:19 3.85812 -76.60848 35061 ft 451 kts 148°
2026-04-22 02:20 3.80464 -76.57639 35061 ft 451 kts 148°
2026-04-22 02:20 3.75079 -76.54409 35068 ft 451 kts 148°
2026-04-22 02:21 3.69696 -76.51180 35067 ft 451 kts 148°
2026-04-22 02:21 3.64301 -76.47944 35073 ft 452 kts 148°
2026-04-22 02:22 3.58908 -76.44711 35073 ft 452 kts 148°
2026-04-22 02:22 3.53502 -76.41470 35072 ft 452 kts 148°
2026-04-22 02:23 3.48107 -76.38235 35077 ft 452 kts 149°
2026-04-22 02:23 3.42712 -76.35002 35073 ft 452 kts 149°
2026-04-22 02:24 3.37334 -76.31779 35074 ft 453 kts 149°
2026-04-22 02:24 3.31919 -76.28534 35077 ft 453 kts 149°
2026-04-22 02:25 3.26508 -76.25292 35083 ft 453 kts 149°
2026-04-22 02:25 3.21098 -76.22051 35095 ft 453 kts 149°
2026-04-22 02:26 3.15675 -76.18802 35104 ft 454 kts 148°
2026-04-22 02:26 3.10288 -76.15576 35121 ft 454 kts 149°
2026-04-22 02:27 3.04863 -76.12327 35131 ft 454 kts 148°
2026-04-22 02:27 2.99435 -76.09077 35129 ft 454 kts 149°
2026-04-22 02:28 2.94008 -76.05828 35123 ft 454 kts 149°
2026-04-22 02:28 2.88578 -76.02578 35131 ft 455 kts 148°
2026-04-22 02:29 2.83145 -75.99326 35126 ft 454 kts 148°
2026-04-22 02:29 2.77759 -75.96102 35113 ft 454 kts 148°
2026-04-22 02:30 2.72339 -75.92858 35103 ft 454 kts 148°
2026-04-22 02:30 2.66916 -75.89614 35084 ft 454 kts 148°
2026-04-22 02:31 2.61501 -75.86373 35063 ft 452 kts 148°
2026-04-22 02:31 2.56127 -75.83158 35051 ft 453 kts 148°
2026-04-22 02:32 2.50725 -75.79927 35031 ft 452 kts 148°
2026-04-22 02:32 2.45325 -75.76697 35029 ft 452 kts 148°
2026-04-22 02:33 2.39923 -75.73466 35022 ft 452 kts 148°
2026-04-22 02:33 2.34527 -75.70239 35016 ft 453 kts 148°
2026-04-22 02:34 2.29114 -75.67003 35012 ft 453 kts 148°
2026-04-22 02:34 2.23710 -75.63771 35015 ft 453 kts 148°
2026-04-22 02:35 2.18300 -75.60536 35016 ft 452 kts 147°
2026-04-22 02:35 2.12930 -75.57326 35020 ft 453 kts 147°
2026-04-22 02:36 2.07531 -75.54099 35013 ft 452 kts 147°
2026-04-22 02:36 2.02130 -75.50871 35005 ft 452 kts 147°
2026-04-22 02:37 1.96736 -75.47647 35005 ft 451 kts 147°
2026-04-22 02:37 1.91341 -75.44423 34992 ft 451 kts 147°
2026-04-22 02:38 1.85951 -75.41202 34980 ft 451 kts 147°
2026-04-22 02:38 1.80561 -75.37981 34965 ft 450 kts 147°
2026-04-22 02:39 1.75217 -75.34788 34958 ft 450 kts 147°
2026-04-22 02:39 1.69845 -75.31578 34949 ft 450 kts 147°
2026-04-22 02:40 1.64472 -75.28369 34938 ft 449 kts 147°
2026-04-22 02:40 1.59106 -75.25164 34927 ft 449 kts 147°
2026-04-22 02:41 1.53732 -75.21954 34913 ft 449 kts 147°
2026-04-22 02:41 1.48361 -75.18746 34908 ft 449 kts 147°
2026-04-22 02:42 1.42998 -75.15543 34903 ft 450 kts 147°
2026-04-22 02:42 1.37621 -75.12332 34902 ft 450 kts 147°
2026-04-22 02:43 1.32282 -75.09144 34903 ft 449 kts 147°
2026-04-22 02:43 1.26912 -75.05937 34903 ft 449 kts 147°
2026-04-22 02:44 1.21545 -75.02733 34906 ft 449 kts 147°
2026-04-22 02:44 1.16168 -74.99523 34909 ft 450 kts 147°
2026-04-22 02:45 1.10796 -74.96315 34906 ft 450 kts 147°
2026-04-22 02:45 1.05409 -74.93099 34907 ft 450 kts 147°
2026-04-22 02:46 1.00061 -74.89906 34909 ft 450 kts 147°
2026-04-22 02:46 0.94677 -74.86692 34912 ft 451 kts 147°
2026-04-22 02:47 0.89292 -74.83478 34916 ft 451 kts 147°
2026-04-22 02:47 0.83897 -74.80257 34914 ft 451 kts 147°
2026-04-22 02:48 0.78508 -74.77041 34916 ft 451 kts 147°
2026-04-22 02:48 0.73152 -74.73844 34920 ft 451 kts 147°
2026-04-22 02:49 0.67757 -74.70624 34919 ft 451 kts 147°
2026-04-22 02:49 0.62434 -74.67447 34919 ft 451 kts 147°
2026-04-22 02:50 0.56981 -74.64193 34923 ft 451 kts 147°
2026-04-22 02:50 0.51626 -74.60997 34920 ft 451 kts 147°
2026-04-22 02:51 0.46235 -74.57780 34923 ft 451 kts 147°
2026-04-22 02:51 0.40845 -74.54564 34930 ft 451 kts 147°
2026-04-22 02:52 0.35456 -74.51348 34924 ft 451 kts 147°
2026-04-22 02:52 0.30074 -74.48136 34929 ft 450 kts 147°
2026-04-22 02:53 0.24692 -74.44925 34928 ft 450 kts 147°
2026-04-22 02:53 0.19314 -74.41715 34933 ft 450 kts 147°
2026-04-22 02:54 0.13933 -74.38504 34933 ft 450 kts 147°
2026-04-22 02:54 0.08590 -74.35316 34936 ft 450 kts 147°
2026-04-22 02:55 0.03213 -74.32107 34933 ft 449 kts 147°
2026-04-22 02:55 -0.02150 -74.28907 34940 ft 449 kts 147°
2026-04-22 02:56 -0.07514 -74.25706 34936 ft 449 kts 147°
2026-04-22 02:56 -0.12879 -74.22505 34945 ft 449 kts 147°
2026-04-22 02:57 -0.18244 -74.19303 34939 ft 449 kts 147°
2026-04-22 02:57 -0.23611 -74.16100 34945 ft 449 kts 147°
2026-04-22 02:58 -0.28972 -74.12902 34947 ft 449 kts 147°
2026-04-22 02:58 -0.34310 -74.09716 34943 ft 449 kts 147°
2026-04-22 02:59 -0.39675 -74.06515 34947 ft 449 kts 147°
2026-04-22 02:59 -0.45040 -74.03313 34950 ft 449 kts 147°
2026-04-22 03:00 -0.50408 -74.00109 34953 ft 449 kts 147°
2026-04-22 03:00 -0.55785 -73.96900 34954 ft 449 kts 147°
2026-04-22 03:01 -0.61149 -73.93699 34950 ft 449 kts 147°
2026-04-22 03:01 -0.66520 -73.90494 34951 ft 449 kts 147°
2026-04-22 03:02 -0.71888 -73.87290 34956 ft 449 kts 147°
2026-04-22 03:02 -0.77227 -73.84103 34964 ft 450 kts 147°
2026-04-22 03:03 -0.82603 -73.80894 34963 ft 450 kts 147°
2026-04-22 03:03 -0.87077 -73.78224 34966 ft 450 kts 147°
2026-04-22 03:04 -0.93338 -73.74487 34962 ft 450 kts 147°
2026-04-22 03:04 -0.97841 -73.71799 34962 ft 450 kts 147°
2026-04-22 03:05 -1.04094 -73.68066 34964 ft 450 kts 147°
2026-04-22 03:05 -1.08567 -73.65396 34964 ft 450 kts 147°
2026-04-22 03:06 -1.14045 -73.62350 34939 ft 452 kts 159°
2026-04-22 03:06 -1.20044 -73.60380 34976 ft 454 kts 159°
2026-04-22 03:07 -1.26040 -73.58353 34960 ft 454 kts 159°
2026-04-22 03:07 -1.32010 -73.56354 34955 ft 455 kts 159°
2026-04-22 03:08 -1.38015 -73.54344 34953 ft 455 kts 159°
2026-04-22 03:08 -1.44018 -73.52336 34950 ft 455 kts 159°
2026-04-22 03:09 -1.50028 -73.50325 34950 ft 455 kts 159°
2026-04-22 03:09 -1.56038 -73.48313 34947 ft 455 kts 159°
2026-04-22 03:10 -1.62019 -73.46312 34943 ft 456 kts 159°
2026-04-22 03:10 -1.68032 -73.44299 34947 ft 456 kts 159°
2026-04-22 03:11 -1.74044 -73.42287 34950 ft 456 kts 159°
2026-04-22 03:11 -1.80074 -73.40269 34948 ft 456 kts 159°
2026-04-22 03:12 -1.86089 -73.38255 34942 ft 456 kts 159°
2026-04-22 03:12 -1.95090 -73.35242 34941 ft 456 kts 159°
2026-04-22 03:13 -2.01119 -73.33223 34939 ft 456 kts 159°
2026-04-22 03:13 -2.07139 -73.31208 34940 ft 456 kts 159°
2026-04-22 03:14 -2.13157 -73.29192 34935 ft 456 kts 159°
2026-04-22 03:14 -2.19188 -73.27173 34933 ft 457 kts 159°
2026-04-22 03:15 -2.25219 -73.25153 34933 ft 457 kts 159°
2026-04-22 03:15 -2.31212 -73.23145 34929 ft 457 kts 159°
2026-04-22 03:16 -2.37244 -73.21125 34931 ft 457 kts 159°
2026-04-22 03:16 -2.43278 -73.19103 34929 ft 457 kts 159°
2026-04-22 03:17 -2.49309 -73.17083 34930 ft 457 kts 159°
2026-04-22 03:17 -2.55354 -73.15057 34929 ft 457 kts 159°
2026-04-22 03:18 -2.61395 -73.13033 34928 ft 457 kts 159°
2026-04-22 03:18 -2.67385 -73.11025 34926 ft 457 kts 159°
2026-04-22 03:19 -2.73420 -73.09003 34925 ft 457 kts 159°
2026-04-22 03:19 -2.79471 -73.06974 34919 ft 457 kts 159°
2026-04-22 03:20 -2.85508 -73.04950 34919 ft 457 kts 159°
2026-04-22 03:20 -2.91506 -73.02940 34917 ft 457 kts 159°
2026-04-22 03:21 -2.97304 -73.00438 34927 ft 453 kts 148°
2026-04-22 03:21 -3.02880 -72.97466 34917 ft 454 kts 149°
2026-04-22 03:22 -3.08455 -72.94492 34915 ft 454 kts 149°
2026-04-22 03:22 -3.14025 -72.91516 34909 ft 454 kts 149°
2026-04-22 03:23 -3.19601 -72.88536 34912 ft 454 kts 149°
2026-04-22 03:23 -3.25176 -72.85557 34911 ft 454 kts 149°
2026-04-22 03:24 -3.30714 -72.82597 34906 ft 454 kts 149°
2026-04-22 03:24 -3.36286 -72.79618 34906 ft 454 kts 149°
2026-04-22 03:25 -3.41860 -72.76638 34908 ft 454 kts 149°
2026-04-22 03:25 -3.47440 -72.73654 34913 ft 454 kts 149°
2026-04-22 03:26 -3.53020 -72.70671 34906 ft 454 kts 149°
2026-04-22 03:26 -3.58570 -72.67702 34910 ft 454 kts 149°
2026-04-22 03:27 -3.64150 -72.64717 34915 ft 454 kts 149°
2026-04-22 03:27 -3.69757 -72.61718 34912 ft 454 kts 149°
2026-04-22 03:28 -3.75300 -72.58752 34910 ft 454 kts 149°
2026-04-22 03:28 -3.80868 -72.55772 34913 ft 454 kts 149°
2026-04-22 03:29 -3.86447 -72.52786 34913 ft 454 kts 149°
2026-04-22 03:29 -3.92016 -72.49805 34917 ft 454 kts 149°
2026-04-22 03:30 -3.97584 -72.46824 34916 ft 453 kts 149°
2026-04-22 03:30 -4.03144 -72.43846 34916 ft 453 kts 149°
2026-04-22 03:31 -4.08673 -72.40885 34915 ft 453 kts 149°
2026-04-22 03:31 -4.14242 -72.37902 34919 ft 454 kts 149°
2026-04-22 03:32 -4.19809 -72.34920 34922 ft 454 kts 149°
2026-04-22 03:32 -4.25385 -72.31932 34920 ft 455 kts 149°
2026-04-22 03:33 -4.30972 -72.28938 34921 ft 455 kts 149°
2026-04-22 03:33 -4.36564 -72.25941 34919 ft 456 kts 149°
2026-04-22 03:34 -4.42157 -72.22943 34922 ft 456 kts 149°
2026-04-22 03:34 -4.47726 -72.19956 34924 ft 456 kts 149°
2026-04-22 03:35 -4.53330 -72.16951 34929 ft 457 kts 149°
2026-04-22 03:35 -4.58940 -72.13942 34931 ft 457 kts 149°
2026-04-22 03:36 -4.64554 -72.10931 34926 ft 458 kts 149°
2026-04-22 03:36 -4.70162 -72.07917 34934 ft 458 kts 149°
2026-04-22 03:37 -4.75784 -72.04892 34931 ft 458 kts 149°
2026-04-22 03:37 -4.81418 -72.01860 34940 ft 459 kts 149°
2026-04-22 03:38 -4.87005 -71.98853 34934 ft 459 kts 149°
2026-04-22 03:38 -4.92626 -71.95827 34939 ft 459 kts 149°
2026-04-22 03:39 -4.98254 -71.92797 34935 ft 459 kts 149°
2026-04-22 03:39 -5.03881 -71.89766 34947 ft 459 kts 149°
2026-04-22 03:40 -5.09507 -71.86736 34947 ft 459 kts 149°
2026-04-22 03:40 -5.15129 -71.83707 34944 ft 458 kts 149°
2026-04-22 03:41 -5.20755 -71.80676 34949 ft 458 kts 149°
2026-04-22 03:41 -5.26373 -71.77647 34949 ft 458 kts 149°
2026-04-22 03:42 -5.31993 -71.74618 34950 ft 458 kts 149°
2026-04-22 03:42 -5.37574 -71.71608 34954 ft 458 kts 149°
2026-04-22 03:43 -5.43188 -71.68581 34961 ft 458 kts 149°
2026-04-22 03:43 -5.48803 -71.65552 34960 ft 458 kts 149°
2026-04-22 03:44 -5.54416 -71.62523 34963 ft 458 kts 149°
2026-04-22 03:44 -5.60030 -71.59494 34965 ft 457 kts 149°
2026-04-22 03:45 -5.65602 -71.56486 34964 ft 457 kts 149°
2026-04-22 03:45 -5.71209 -71.53459 34961 ft 457 kts 149°
2026-04-22 03:46 -5.76810 -71.50434 34965 ft 457 kts 150°
2026-04-22 03:46 -5.82415 -71.47407 34966 ft 457 kts 149°
2026-04-22 03:47 -5.88014 -71.44382 34965 ft 456 kts 150°
2026-04-22 03:47 -5.93611 -71.41357 34962 ft 456 kts 150°
2026-04-22 03:48 -5.99197 -71.38338 34965 ft 455 kts 150°
2026-04-22 03:48 -6.04743 -71.35339 34965 ft 455 kts 150°
2026-04-22 03:49 -6.10320 -71.32323 34967 ft 455 kts 150°
2026-04-22 03:49 -6.15905 -71.29302 34966 ft 455 kts 150°
2026-04-22 03:50 -6.21483 -71.26284 34966 ft 455 kts 150°
2026-04-22 03:50 -6.27066 -71.23263 34963 ft 456 kts 150°
2026-04-22 03:51 -6.31704 -71.20752 34971 ft 456 kts 150°
2026-04-22 03:51 -6.37291 -71.17728 34969 ft 456 kts 149°
2026-04-22 03:52 -6.43789 -71.14210 34964 ft 456 kts 150°
2026-04-22 03:52 -6.48469 -71.11676 34963 ft 456 kts 150°
2026-04-22 03:53 -6.54054 -71.08651 34967 ft 456 kts 150°
2026-04-22 03:53 -6.59610 -71.05640 34963 ft 456 kts 150°
2026-04-22 03:54 -6.65199 -71.02612 34966 ft 456 kts 149°
2026-04-22 03:54 -6.70794 -70.99579 34965 ft 457 kts 149°
2026-04-22 03:55 -6.76385 -70.96547 34968 ft 457 kts 150°
2026-04-22 03:55 -6.81978 -70.93514 34967 ft 457 kts 150°
2026-04-22 03:56 -6.87573 -70.90478 34965 ft 457 kts 150°
2026-04-22 03:56 -6.93176 -70.87438 34970 ft 458 kts 150°
2026-04-22 03:57 -6.98781 -70.84395 34970 ft 458 kts 150°
2026-04-22 03:57 -7.04397 -70.81346 34967 ft 458 kts 150°
2026-04-22 03:58 -7.09974 -70.78318 34968 ft 459 kts 150°
2026-04-22 03:58 -7.15582 -70.75271 34968 ft 459 kts 150°
2026-04-22 03:59 -7.21218 -70.72208 34972 ft 459 kts 150°
2026-04-22 03:59 -7.26834 -70.69155 34973 ft 459 kts 149°
2026-04-22 04:00 -7.32456 -70.66099 34971 ft 459 kts 149°
2026-04-22 04:00 -7.38077 -70.63042 34972 ft 459 kts 149°
2026-04-22 04:01 -7.43695 -70.59985 34976 ft 459 kts 149°
2026-04-22 04:01 -7.49313 -70.56928 34973 ft 459 kts 149°
2026-04-22 04:02 -7.54933 -70.53869 34976 ft 459 kts 149°
2026-04-22 04:02 -7.60550 -70.50811 34973 ft 459 kts 149°
2026-04-22 04:03 -7.66130 -70.47771 34974 ft 459 kts 149°
2026-04-22 04:03 -7.71752 -70.44707 34976 ft 459 kts 149°
2026-04-22 04:04 -7.77372 -70.41644 34969 ft 459 kts 149°
2026-04-22 04:04 -7.82996 -70.38577 34972 ft 459 kts 149°
2026-04-22 04:05 -7.88617 -70.35511 34976 ft 459 kts 149°
2026-04-22 04:05 -7.94235 -70.32446 34971 ft 459 kts 149°
2026-04-22 04:06 -7.99865 -70.29374 34973 ft 459 kts 149°
2026-04-22 04:06 -8.05451 -70.26323 34973 ft 459 kts 149°
2026-04-22 04:07 -8.11077 -70.23251 34973 ft 460 kts 149°
2026-04-22 04:07 -8.16705 -70.20176 34971 ft 460 kts 149°
2026-04-22 04:08 -8.22341 -70.17096 34971 ft 460 kts 149°
2026-04-22 04:08 -8.27971 -70.14019 34972 ft 460 kts 149°
2026-04-22 04:09 -8.33593 -70.10944 34973 ft 460 kts 149°
2026-04-22 04:09 -8.39221 -70.07866 34970 ft 460 kts 149°
2026-04-22 04:10 -8.44811 -70.04807 34973 ft 460 kts 149°
2026-04-22 04:10 -8.50440 -70.01726 34970 ft 460 kts 149°
2026-04-22 04:11 -8.56077 -69.98640 34969 ft 460 kts 149°
2026-04-22 04:11 -8.61710 -69.95554 34969 ft 460 kts 149°
2026-04-22 04:12 -8.67341 -69.92468 34973 ft 460 kts 149°
2026-04-22 04:12 -8.72931 -69.89404 34971 ft 460 kts 149°
2026-04-22 04:13 -8.78589 -69.86302 34974 ft 461 kts 149°
2026-04-22 04:13 -8.84219 -69.83214 34976 ft 461 kts 149°
2026-04-22 04:14 -8.89853 -69.80122 34972 ft 461 kts 149°
2026-04-22 04:14 -8.95491 -69.77028 34970 ft 461 kts 148°
2026-04-22 04:15 -9.01124 -69.73935 34973 ft 461 kts 148°
2026-04-22 04:15 -9.06771 -69.70833 34975 ft 461 kts 148°
2026-04-22 04:16 -9.15238 -69.66180 34974 ft 461 kts 148°
2026-04-22 04:17 -9.20877 -69.63080 34975 ft 461 kts 148°
2026-04-22 04:17 -9.26523 -69.59975 34970 ft 461 kts 148°
2026-04-22 04:18 -9.32116 -69.56897 34970 ft 461 kts 148°
2026-04-22 04:18 -9.37762 -69.53790 34969 ft 461 kts 148°
2026-04-22 04:19 -9.43399 -69.50686 34971 ft 461 kts 148°
2026-04-22 04:19 -9.49043 -69.47578 34973 ft 461 kts 148°
2026-04-22 04:20 -9.54674 -69.44475 34974 ft 461 kts 148°
2026-04-22 04:20 -9.60313 -69.41366 34973 ft 461 kts 148°
2026-04-22 04:21 -9.65909 -69.38281 34973 ft 461 kts 148°
2026-04-22 04:21 -9.71545 -69.35171 34975 ft 461 kts 148°
2026-04-22 04:22 -9.77191 -69.32056 34977 ft 461 kts 148°
2026-04-22 04:22 -9.82801 -69.28959 34974 ft 461 kts 148°
2026-04-22 04:23 -9.88435 -69.25847 34975 ft 461 kts 148°
2026-04-22 04:23 -9.94073 -69.22733 34975 ft 461 kts 148°
2026-04-22 04:24 -9.99709 -69.19617 34971 ft 461 kts 148°
2026-04-22 04:24 -10.05350 -69.16498 34972 ft 461 kts 148°
2026-04-22 04:25 -10.10994 -69.13376 34976 ft 462 kts 148°
2026-04-22 04:25 -10.16632 -69.10256 34979 ft 462 kts 148°
2026-04-22 04:26 -10.22278 -69.07130 34975 ft 462 kts 148°
2026-04-22 04:26 -10.27899 -69.04018 34978 ft 462 kts 148°
2026-04-22 04:27 -10.33542 -69.00891 34977 ft 462 kts 148°
2026-04-22 04:27 -10.39185 -68.97762 34976 ft 462 kts 148°
2026-04-22 04:28 -10.44829 -68.94633 34977 ft 462 kts 148°
2026-04-22 04:28 -10.50481 -68.91498 34977 ft 462 kts 148°
2026-04-22 04:29 -10.56135 -68.88360 34979 ft 462 kts 148°
2026-04-22 04:29 -10.61787 -68.85222 34976 ft 464 kts 149°
2026-04-22 04:30 -10.67416 -68.82095 34972 ft 464 kts 149°
2026-04-22 04:30 -10.73094 -68.78939 34976 ft 464 kts 149°
2026-04-22 04:31 -10.78770 -68.75784 34973 ft 464 kts 149°
2026-04-22 04:31 -10.84443 -68.72629 34975 ft 465 kts 149°
2026-04-22 04:32 -10.90079 -68.69494 34974 ft 465 kts 149°
2026-04-22 04:32 -10.95750 -68.66337 34975 ft 465 kts 149°
2026-04-22 04:33 -11.01427 -68.63176 34974 ft 465 kts 149°
2026-04-22 04:33 -11.07110 -68.60010 34969 ft 465 kts 149°
2026-04-22 04:34 -11.12798 -68.56838 34971 ft 465 kts 149°
2026-04-22 04:34 -11.18444 -68.53690 34972 ft 465 kts 149°
2026-04-22 04:35 -11.24130 -68.50517 34971 ft 465 kts 149°
2026-04-22 04:35 -11.29812 -68.47345 34971 ft 466 kts 149°
2026-04-22 04:36 -11.35498 -68.44170 34970 ft 465 kts 149°
2026-04-22 04:36 -11.41179 -68.40996 34968 ft 465 kts 149°
2026-04-22 04:37 -11.46853 -68.37825 34970 ft 465 kts 149°
2026-04-22 04:37 -11.52532 -68.34649 34969 ft 465 kts 149°
2026-04-22 04:38 -11.58213 -68.31471 34967 ft 465 kts 149°
2026-04-22 04:38 -11.63855 -68.28313 34966 ft 465 kts 149°
2026-04-22 04:39 -11.69526 -68.25137 34964 ft 465 kts 149°
2026-04-22 04:39 -11.75198 -68.21959 34961 ft 465 kts 149°
2026-04-22 04:40 -11.79917 -68.19314 34963 ft 465 kts 149°
2026-04-22 04:40 -11.85591 -68.16132 34967 ft 465 kts 149°
2026-04-22 04:41 -11.91275 -68.12944 34964 ft 465 kts 149°
2026-04-22 04:41 -11.96950 -68.09758 34968 ft 465 kts 149°
2026-04-22 04:42 -12.02628 -68.06570 34965 ft 465 kts 149°
2026-04-22 04:42 -12.08271 -68.03400 34964 ft 465 kts 149°
2026-04-22 04:43 -12.14013 -68.00336 34964 ft 466 kts 153°
2026-04-22 04:43 -12.19887 -67.97512 34958 ft 466 kts 152°
2026-04-22 04:44 -12.25741 -67.94654 34961 ft 466 kts 152°
2026-04-22 04:44 -12.31594 -67.91792 34960 ft 466 kts 152°
2026-04-22 04:45 -12.37451 -67.88926 34961 ft 466 kts 152°
2026-04-22 04:45 -12.43298 -67.86064 34958 ft 466 kts 152°
2026-04-22 04:46 -12.49105 -67.83219 34957 ft 466 kts 152°
2026-04-22 04:46 -12.54961 -67.80349 34961 ft 466 kts 152°
2026-04-22 04:47 -12.60820 -67.77477 34963 ft 466 kts 152°
2026-04-22 04:47 -12.66674 -67.74605 34961 ft 466 kts 152°
2026-04-22 04:48 -12.72491 -67.71750 34961 ft 466 kts 152°
2026-04-22 04:48 -12.78337 -67.68879 34958 ft 466 kts 152°
2026-04-22 04:49 -12.84185 -67.66006 34958 ft 466 kts 152°
2026-04-22 04:49 -12.90032 -67.63132 34960 ft 466 kts 152°
2026-04-22 04:50 -12.95884 -67.60254 34961 ft 466 kts 152°
2026-04-22 04:50 -13.01743 -67.57371 34960 ft 467 kts 152°
2026-04-22 04:51 -13.07563 -67.54505 34959 ft 467 kts 152°
2026-04-22 04:51 -13.13420 -67.51620 34959 ft 467 kts 152°
2026-04-22 04:52 -13.19278 -67.48733 34958 ft 467 kts 152°
2026-04-22 04:52 -13.25135 -67.45845 34960 ft 467 kts 152°
2026-04-22 04:53 -13.30994 -67.42955 34961 ft 467 kts 152°
2026-04-22 04:53 -13.36860 -67.40059 34962 ft 467 kts 152°
2026-04-22 04:54 -13.42695 -67.37177 34961 ft 468 kts 152°
2026-04-22 04:54 -13.48563 -67.34277 34960 ft 468 kts 152°
2026-04-22 04:55 -13.54442 -67.31370 34959 ft 468 kts 152°
2026-04-22 04:55 -13.60321 -67.28462 34962 ft 468 kts 152°
2026-04-22 04:56 -13.66144 -67.25579 34959 ft 468 kts 152°
2026-04-22 04:56 -13.72024 -67.22667 34955 ft 468 kts 152°
2026-04-22 04:57 -13.77894 -67.19758 34957 ft 468 kts 152°
2026-04-22 04:57 -13.83762 -67.16848 34960 ft 467 kts 154°
2026-04-22 04:58 -13.89573 -67.13965 34957 ft 466 kts 154°
2026-04-22 04:58 -13.95434 -67.11056 34961 ft 466 kts 154°
2026-04-22 04:59 -14.01278 -67.08154 34961 ft 466 kts 154°
2026-04-22 04:59 -14.07121 -67.05250 34958 ft 466 kts 154°
2026-04-22 05:00 -14.12974 -67.02340 34959 ft 466 kts 154°
2026-04-22 05:00 -14.18820 -66.99431 34958 ft 467 kts 154°
2026-04-22 05:01 -14.24630 -66.96539 34960 ft 466 kts 154°
2026-04-22 05:01 -14.30469 -66.93631 34959 ft 466 kts 154°
2026-04-22 05:02 -14.36308 -66.90721 34961 ft 466 kts 154°
2026-04-22 05:02 -14.42159 -66.87804 34956 ft 466 kts 154°
2026-04-22 05:03 -14.48005 -66.84912 34959 ft 466 kts 155°
2026-04-22 05:03 -14.53918 -66.82160 34958 ft 466 kts 155°
2026-04-22 05:04 -14.59831 -66.79387 34960 ft 466 kts 155°
2026-04-22 05:04 -14.65732 -66.76618 34965 ft 466 kts 155°
2026-04-22 05:05 -14.71589 -66.73867 34964 ft 465 kts 155°
2026-04-22 05:05 -14.77489 -66.71095 34966 ft 465 kts 155°
2026-04-22 05:06 -14.83377 -66.68326 34962 ft 465 kts 155°
2026-04-22 05:06 -14.89261 -66.65558 34966 ft 464 kts 155°
2026-04-22 05:07 -14.95145 -66.62788 34965 ft 464 kts 155°
2026-04-22 05:07 -15.01024 -66.60018 34970 ft 464 kts 155°
2026-04-22 05:08 -15.06897 -66.57250 34975 ft 464 kts 155°
2026-04-22 05:08 -15.12766 -66.54482 34979 ft 464 kts 155°
2026-04-22 05:09 -15.18596 -66.51730 34988 ft 464 kts 155°
2026-04-22 05:09 -15.24475 -66.48954 34993 ft 464 kts 155°
2026-04-22 05:10 -15.30358 -66.46175 34998 ft 464 kts 155°
2026-04-22 05:10 -15.36237 -66.43395 35001 ft 464 kts 155°
2026-04-22 05:11 -15.42125 -66.40610 35007 ft 465 kts 155°
2026-04-22 05:11 -15.48012 -66.37823 35012 ft 465 kts 155°
2026-04-22 05:12 -15.53873 -66.35056 35017 ft 466 kts 156°
2026-04-22 05:12 -15.59793 -66.32290 35023 ft 466 kts 156°
2026-04-22 05:13 -15.65711 -66.29521 35027 ft 466 kts 156°
2026-04-22 05:13 -15.71631 -66.26748 35034 ft 467 kts 156°
2026-04-22 05:14 -15.77522 -66.23988 35042 ft 467 kts 156°
2026-04-22 05:14 -15.83459 -66.21205 35043 ft 467 kts 156°
2026-04-22 05:15 -15.89396 -66.18419 35044 ft 468 kts 156°
2026-04-22 05:15 -15.95339 -66.15629 35056 ft 468 kts 156°
2026-04-22 05:16 -16.01237 -66.12858 35063 ft 468 kts 156°
2026-04-22 05:16 -16.07172 -66.10068 35069 ft 468 kts 155°
2026-04-22 05:17 -16.13105 -66.07277 35072 ft 468 kts 155°
2026-04-22 05:17 -16.19048 -66.04479 35079 ft 468 kts 155°
2026-04-22 05:18 -16.27975 -66.00274 35091 ft 468 kts 155°
2026-04-22 05:18 -16.33867 -65.97496 35101 ft 468 kts 155°
2026-04-22 05:19 -16.39796 -65.94698 35109 ft 468 kts 155°
2026-04-22 05:19 -16.45732 -65.91896 35117 ft 468 kts 155°
2026-04-22 05:20 -16.51659 -65.89096 35125 ft 467 kts 155°
2026-04-22 05:20 -16.57591 -65.86292 35137 ft 467 kts 155°
2026-04-22 05:21 -16.63514 -65.83489 35145 ft 467 kts 155°
2026-04-22 05:21 -16.69400 -65.80703 35147 ft 467 kts 155°
2026-04-22 05:22 -16.75318 -65.77900 35153 ft 467 kts 155°
2026-04-22 05:22 -16.80998 -65.74647 35153 ft 465 kts 137°
2026-04-22 05:23 -16.84562 -65.69119 35160 ft 463 kts 109°
2026-04-22 05:23 -16.86725 -65.62769 35144 ft 465 kts 108°
2026-04-22 05:24 -16.88770 -65.56375 35137 ft 464 kts 106°
2026-04-22 05:24 -16.90751 -65.50010 35128 ft 463 kts 106°
2026-04-22 05:25 -16.92735 -65.43612 35126 ft 463 kts 106°
2026-04-22 05:25 -16.94722 -65.37196 35121 ft 463 kts 106°
2026-04-22 05:26 -16.96366 -65.31880 35114 ft 463 kts 106°
2026-04-22 05:26 -16.98346 -65.25471 35106 ft 463 kts 106°
2026-04-22 05:27 -17.00325 -65.19058 35106 ft 464 kts 106°
2026-04-22 05:27 -17.02262 -65.12773 34868 ft 443 kts 105°
2026-04-22 05:28 -17.03201 -65.09723 34452 ft 439 kts 105°
2026-04-22 05:28 -17.04137 -65.06681 33887 ft 439 kts 105°
2026-04-22 05:28 -17.05070 -65.03649 33336 ft 437 kts 105°
2026-04-22 05:28 -17.05999 -65.00627 32845 ft 434 kts 105°
2026-04-22 05:29 -17.06906 -64.97674 32387 ft 431 kts 105°
2026-04-22 05:29 -17.07818 -64.94702 31914 ft 428 kts 105°
2026-04-22 05:29 -17.08727 -64.91742 31414 ft 426 kts 105°
2026-04-22 05:29 -17.09630 -64.88797 30898 ft 425 kts 105°
2026-04-22 05:30 -17.10529 -64.85863 30436 ft 423 kts 105°
2026-04-22 05:30 -17.11422 -64.82949 29951 ft 420 kts 105°
2026-04-22 05:30 -17.12311 -64.80045 29424 ft 418 kts 106°
2026-04-22 05:30 -17.13193 -64.77162 28940 ft 414 kts 105°
2026-04-22 05:31 -17.14067 -64.74306 28496 ft 411 kts 106°
2026-04-22 05:31 -17.14934 -64.71469 28040 ft 407 kts 106°
2026-04-22 05:31 -17.15795 -64.68651 27591 ft 404 kts 106°
2026-04-22 05:31 -17.16646 -64.65861 27146 ft 401 kts 106°
2026-04-22 05:32 -17.17493 -64.63087 26698 ft 398 kts 106°
2026-04-22 05:32 -17.18322 -64.60370 26258 ft 396 kts 106°
2026-04-22 05:32 -17.19158 -64.57628 25817 ft 394 kts 106°
2026-04-22 05:32 -17.19988 -64.54902 25373 ft 392 kts 107°
2026-04-22 05:33 -17.20813 -64.52194 24943 ft 390 kts 107°
2026-04-22 05:33 -17.21637 -64.49489 24512 ft 389 kts 107°
2026-04-22 05:33 -17.22389 -64.46778 24013 ft 389 kts 104°
2026-04-22 05:33 -17.23082 -64.44045 23581 ft 387 kts 104°
2026-04-22 05:34 -17.23782 -64.41328 23116 ft 385 kts 104°
2026-04-22 05:34 -17.24466 -64.38684 22675 ft 382 kts 104°
2026-04-22 05:34 -17.25163 -64.35995 22252 ft 378 kts 104°
2026-04-22 05:34 -17.25851 -64.33342 21830 ft 375 kts 104°
2026-04-22 05:35 -17.26532 -64.30714 21393 ft 372 kts 104°
2026-04-22 05:35 -17.27199 -64.28139 20996 ft 370 kts 105°
2026-04-22 05:35 -17.27869 -64.25549 20581 ft 367 kts 105°
2026-04-22 05:35 -17.28534 -64.22977 20166 ft 365 kts 105°
2026-04-22 05:36 -17.29195 -64.20424 19757 ft 362 kts 105°
2026-04-22 05:36 -17.29853 -64.17876 19348 ft 360 kts 105°
2026-04-22 05:36 -17.30505 -64.15354 18939 ft 358 kts 105°
2026-04-22 05:36 -17.31155 -64.12834 18528 ft 357 kts 105°
2026-04-22 05:37 -17.31795 -64.10355 18087 ft 355 kts 105°
2026-04-22 05:37 -17.32438 -64.07860 17647 ft 353 kts 105°
2026-04-22 05:37 -17.33074 -64.05390 17230 ft 350 kts 105°
2026-04-22 05:37 -17.33705 -64.02940 16824 ft 347 kts 105°
2026-04-22 05:38 -17.34330 -64.00515 16425 ft 344 kts 105°
2026-04-22 05:38 -17.34942 -63.98133 16033 ft 341 kts 105°
2026-04-22 05:38 -17.35557 -63.95744 15634 ft 338 kts 105°
2026-04-22 05:38 -17.36167 -63.93372 15244 ft 336 kts 105°
2026-04-22 05:39 -17.36772 -63.91014 14848 ft 333 kts 105°
2026-04-22 05:39 -17.37373 -63.88674 14456 ft 331 kts 105°
2026-04-22 05:39 -17.37963 -63.86376 14069 ft 329 kts 105°
2026-04-22 05:39 -17.38557 -63.84060 13660 ft 327 kts 105°
2026-04-22 05:40 -17.39145 -63.81765 13230 ft 325 kts 105°
2026-04-22 05:40 -17.39731 -63.79481 12836 ft 323 kts 105°
2026-04-22 05:40 -17.40310 -63.77220 12442 ft 320 kts 104°
2026-04-22 05:40 -17.40884 -63.74977 12055 ft 317 kts 104°
2026-04-22 05:41 -17.41447 -63.72776 11671 ft 314 kts 104°
2026-04-22 05:41 -17.42010 -63.70573 11298 ft 312 kts 104°
2026-04-22 05:41 -17.42570 -63.68384 10917 ft 310 kts 104°
2026-04-22 05:41 -17.43126 -63.66204 10550 ft 308 kts 104°
2026-04-22 05:42 -17.43672 -63.64067 10242 ft 304 kts 104°
2026-04-22 05:42 -17.44209 -63.61963 10056 ft 295 kts 104°
2026-04-22 05:42 -17.44737 -63.59894 9670 ft 293 kts 104°
2026-04-22 05:42 -17.45263 -63.57833 9280 ft 291 kts 104°
2026-04-22 05:43 -17.45775 -63.55826 8924 ft 281 kts 104°
2026-04-22 05:43 -17.46277 -63.53856 8577 ft 279 kts 104°
2026-04-22 05:43 -17.46777 -63.51889 8224 ft 278 kts 104°
2026-04-22 05:43 -17.47267 -63.49964 7879 ft 276 kts 104°
2026-04-22 05:44 -17.47761 -63.48024 7536 ft 274 kts 104°
2026-04-22 05:44 -17.48250 -63.46101 7201 ft 273 kts 105°
2026-04-22 05:44 -17.48739 -63.44180 6862 ft 271 kts 105°
2026-04-22 05:44 -17.49222 -63.42278 6523 ft 270 kts 105°
2026-04-22 05:45 -17.49704 -63.40381 6172 ft 269 kts 105°
2026-04-22 05:45 -17.50184 -63.38491 5818 ft 268 kts 105°
2026-04-22 05:45 -17.50663 -63.36608 5481 ft 266 kts 105°
2026-04-22 05:45 -17.51112 -63.34741 5219 ft 261 kts 100°
2026-04-22 05:46 -17.51012 -63.32882 5094 ft 251 kts 77°
2026-04-22 05:46 -17.50631 -63.31153 4918 ft 242 kts 79°
2026-04-22 05:46 -17.50271 -63.29430 4621 ft 239 kts 79°
2026-04-22 05:46 -17.49918 -63.27770 4397 ft 227 kts 79°
2026-04-22 05:47 -17.49580 -63.26199 4223 ft 213 kts 79°
2026-04-22 05:47 -17.49502 -63.24755 4084 ft 191 kts 107°
2026-04-22 05:47 -17.50142 -63.23633 3967 ft 174 kts 135°
2026-04-22 05:47 -17.51024 -63.22833 3828 ft 157 kts 144°
2026-04-22 05:48 -17.51890 -63.22199 3696 ft 147 kts 146°
2026-04-22 05:48 -17.52735 -63.21610 3534 ft 145 kts 147°
2026-04-22 05:48 -17.53566 -63.21035 3368 ft 143 kts 147°
2026-04-22 05:48 -17.54397 -63.20461 3197 ft 142 kts 147°
2026-04-22 05:49 -17.55225 -63.19890 3029 ft 142 kts 147°
2026-04-22 05:49 -17.56048 -63.19323 2847 ft 142 kts 147°
2026-04-22 05:49 -17.56875 -63.18754 2675 ft 142 kts 148°
2026-04-22 05:49 -17.57696 -63.18188 2486 ft 140 kts 147°
2026-04-22 05:50 -17.58500 -63.17634 2309 ft 140 kts 147°
2026-04-22 05:50 -17.59314 -63.17074 2128 ft 140 kts 147°
2026-04-22 05:50 -17.60133 -63.16507 1959 ft 142 kts 148°
2026-04-22 05:50 -17.60967 -63.15923 1805 ft 144 kts 147°
2026-04-22 05:51 -17.61799 -63.15338 1604 ft 144 kts 149°
2026-04-22 05:51 -17.62639 -63.14781 1402 ft 142 kts 148°
2026-04-22 05:51 -17.63460 -63.14222 1240 ft 137 kts 147°
2026-04-22 05:51 -17.64115 -63.13779 1231 ft 80 kts 147°
2026-04-22 05:52 -17.64473 -63.13538 1235 ft 44 kts 147°
2026-04-22 05:52 -17.64717 -63.13375 1241 ft 41 kts 148°
2026-04-22 05:52 -17.64932 -63.13231 1233 ft 23 kts 148°
2026-04-22 05:52 -17.65057 -63.13166 1234 ft 20 kts 168°
2026-04-22 05:53 -17.65149 -63.13245 1229 ft 19 kts 238°
2026-04-22 05:53 -17.65180 -63.13320 1234 ft 6 kts 287°
2026-04-22 05:53 -17.65165 -63.13334 1234 ft 3 kts 347°
2026-04-22 05:53 -17.65120 -63.13345 1234 ft 9 kts 338°
2026-04-22 05:54 -17.65063 -63.13379 1233 ft 11 kts 330°
2026-04-22 05:54 -17.64995 -63.13423 1234 ft 12 kts 326°
2026-04-22 05:54 -17.64917 -63.13476 1240 ft 14 kts 327°
2026-04-22 05:54 -17.64828 -63.13536 1234 ft 16 kts 328°
2026-04-22 05:55 -17.64815 -63.13636 1234 ft 17 kts 239°
2026-04-22 05:55 -17.64878 -63.13744 1234 ft 17 kts 250°
2026-04-22 05:55 -17.64816 -63.13834 1233 ft 17 kts 329°
2026-04-22 05:55 -17.64770 -63.13883 1233 ft 6 kts 273°
2026-04-22 05:56 -17.64781 -63.13905 1233 ft 3 kts 227°
2026-04-22 05:56 -17.64801 -63.13930 1233 ft 6 kts 234°
2026-04-22 05:56 -17.64810 -63.13944 1233 ft 0 kts 237°